FW1801 Weather Reports


time (UTC)temp
C
wind
direction
speed
KPH
gust
KPH
rain 1hr
cm
rain 24hr
cm
rain mn
cm
humidity
%
barometer
mb
20260507000030 7 211 0.0 3.2 0.00 0.79 0.79 92 1011.7
20260506234526 7 211 0.0 3.2 0.00 0.79 0.79 92 1011.6
20260506233026 7 211 0.0 4.8 0.00 0.79 0.79 92 1011.4
20260506231524 7 211 0.0 3.2 0.00 0.79 0.79 92 1011.4
20260506230023 7 211 0.0 3.2 0.00 0.79 0.79 92 1011.3
20260506224523 7 211 0.0 6.4 0.00 0.79 0.79 92 1011.2
20260506223019 7 324 1.6 8.0 0.00 0.79 0.79 92 1010.9
20260506221518 7 269 1.6 4.8 0.00 0.79 0.79 93 1010.4
20260506220017 7 154 1.6 6.4 0.00 0.79 0.79 93 1010.3
20260506214518 7 316 4.8 14.5 0.00 0.79 0.79 93 1010.4
20260506213012 7 240 3.2 12.9 0.00 0.79 0.79 93 1010.3
20260506211510 8 211 3.2 9.7 0.00 0.79 0.79 94 1010.1
20260506210007 8 167 1.6 6.4 0.00 0.79 0.79 94 1009.7
20260506204506 8 178 1.6 9.7 0.00 0.79 0.79 94 1009.4
20260506203011 8 214 3.2 8.0 0.03 0.79 0.79 94 1009.2
20260506201502 8 317 0.0 4.8 0.03 0.79 0.79 94 1008.5
20260506200003 8 348 1.6 9.7 0.03 1.07 0.79 94 1008.4
20260506194600 8 182 4.8 12.9 0.05 1.07 0.79 94 1008.4
20260506193058 8 245 4.8 16.1 0.03 1.04 0.76 94 1008.4
20260506191559 8 313 0.0 4.8 0.03 1.04 0.76 94 1008.1
20260506190058 8 303 3.2 6.4 0.03 1.04 0.76 94 1008.0
20260506184555 9 5 1.6 6.4 0.00 1.02 0.71 94 1007.7
20260506183057 9 314 0.0 6.4 0.03 1.02 0.71 93 1007.7
20260506181552 9 317 1.6 8.0 0.03 1.02 0.71 93 1007.2
20260506180051 10 223 6.4 12.9 0.03 1.02 0.71 93 1006.9
20260506174556 10 193 4.8 19.3 0.03 1.02 0.71 92 1006.4
20260506173054 12 26 6.4 17.7 0.00 0.99 0.71 91 1006.3
20260506171544 14 98 1.6 8.0 0.00 0.99 0.71 94 1006.0
20260506170046 14 98 1.6 12.9 0.00 0.99 0.71 94 1006.0
20260506164541 14 180 3.2 16.1 0.03 0.99 0.71 95 1006.2
20260506163048 14 236 1.6 6.4 0.03 0.99 0.71 95 1006.2
20260506161540 13 132 1.6 6.4 0.03 0.99 0.71 95 1006.0
20260506160040 13 194 1.6 6.4 0.08 0.99 0.71 95 1006.2
20260506154539 13 259 1.6 8.0 0.05 0.97 0.69 96 1006.3
20260506153042 13 181 1.6 4.8 0.08 0.97 0.69 96 1006.1
20260506151534 13 155 0.0 4.8 0.08 0.94 0.66 96 1006.4
20260506150040 13 273 1.6 11.3 0.05 0.91 0.64 96 1006.2
20260506144553 13 202 1.6 9.7 0.08 0.91 0.64 96 1006.1
20260506143036 13 213 0.0 4.8 0.10 0.89 0.61 96 1006.1
20260506141533 13 221 0.0 1.6 0.13 0.86 0.58 96 1006.2
20260506140043 13 221 0.0 3.2 0.20 0.86 0.58 96 1006.4
20260506134532 12 221 0.0 3.2 0.28 0.84 0.56 96 1006.3
20260506133028 12 244 0.0 3.2 0.30 0.79 0.51 96 1006.6
20260506131533 12 130 0.0 4.8 0.36 0.71 0.46 96 1007.0
20260506130024 12 148 0.0 3.2 0.28 0.66 0.38 96 1007.2
20260506124522 12 62 0.0 4.8 0.20 0.56 0.28 96 1007.3
20260506123033 12 339 0.0 3.2 0.10 0.46 0.18 96 1006.9
20260506121519 12 339 0.0 4.8 0.05 0.38 0.10 96 1006.9
20260506120025 11 74 0.0 1.6 0.05 0.38 0.10 96 1006.8
20260506114520 11 74 0.0 0.0 0.03 0.41 0.08 95 1007.0
20260506113018 11 74 0.0 0.0 0.03 0.41 0.08 95 1007.2
20260506111516 11 74 0.0 1.6 0.03 0.38 0.05 95 1007.2
20260506110016 11 74 0.0 1.6 0.03 0.38 0.05 95 1007.0
20260506104523 11 74 0.0 0.0 0.03 0.38 0.05 95 1007.1
20260506103016 11 74 0.0 0.0 0.03 0.38 0.05 95 1007.2
20260506101512 11 74 0.0 0.0 0.00 0.36 0.03 95 1006.9
20260506100017 11 19 0.0 0.0 0.03 0.36 0.03 94 1006.8
20260506094611 11 292 0.0 1.6 0.03 0.36 0.03 94 1006.8
20260506093010 11 291 0.0 1.6 0.03 0.36 0.03 94 1006.8
20260506091508 11 291 0.0 3.2 0.03 0.36 0.03 94 1006.8
20260506090006 11 291 0.0 0.0 0.00 0.33 0.00 94 1007.0
20260506084507 11 291 0.0 0.0 0.00 0.33 0.00 94 1007.4
20260506083006 11 291 0.0 1.6 0.00 0.33 0.00 94 1007.5
20260506081507 11 291 0.0 1.6 0.00 0.33 0.00 94 1007.5
20260506073001 11 291 0.0 1.6 0.00 0.33 0.00 94 1007.2
20260506071600 11 291 0.0 0.0 0.00 0.33 0.00 93 1007.2
20260506061553 11 291 0.0 1.6 0.00 0.33 0.00 93 1007.9
20260506044550 11 291 0.0 1.6 0.00 0.33 0.00 91 1009.0
20260506043043 11 291 0.0 3.2 0.00 0.33 0.00 90 1009.0
20260506041542 11 291 0.0 3.2 0.00 0.33 0.00 88 1009.1
20260506040037 12 291 1.6 3.2 0.00 0.33 0.00 87 1009.3
20260506034538 12 291 0.0 3.2 0.00 0.33 0.33 86 1009.3
20260506033033 13 290 0.0 3.2 0.00 0.33 0.33 85 1009.8
20260506031542 13 292 1.6 6.4 0.00 0.33 0.33 84 1009.5
20260506030031 13 251 1.6 8.0 0.00 0.33 0.33 84 1009.6
20260506024532 13 269 3.2 9.7 0.00 0.33 0.33 87 1009.5
20260506023027 14 161 0.0 4.8 0.00 0.33 0.33 91 1009.4
20260506021524 14 248 0.0 9.7 0.00 0.33 0.33 91 1009.1
20260506020024 14 255 0.0 3.2 0.00 0.33 0.33 92 1008.9
20260506014523 14 196 1.6 4.8 0.00 0.33 0.33 94 1008.6
20260506013023 14 196 0.0 3.2 0.00 0.33 0.33 95 1008.5
20260506011520 14 196 0.0 3.2 0.00 0.33 0.33 94 1008.1
20260506010044 14 200 0.0 3.2 0.00 0.33 0.33 94 1007.9
20260506004522 15 200 0.0 3.2 0.00 0.33 0.33 94 1007.7
20260506003022 15 200 0.0 3.2 0.00 0.33 0.33 94 1007.4
20260506001518 15 200 0.0 1.6 0.00 0.33 0.33 93 1007.3